COSMOS 886 DEB, 9651

Orbit data source: Space-Track

COSMOS 886 DEB, 9651 is space debris in LEO originally from a launch on Mon, 27 Dec 1976 UTC launched from the Tyuratam Missile And Space Complex (TTMTR). Debris objects in space refer to the collection of defunct objects orbiting the Earth. Examples of debris include non-operational satellites, rocket bodies, and fragments generated from explosions, collisions, or faulty payload assembly.

Loading next visibility...
Identifier
9651, 1976-126H
Orbit
LEO
Country
Flag of CISCIS
Related business
Manufacturer
Unknown
Mission
Spacecraft
Bus & Motor
Unknown
Mass
Unknown
Launch date (UTC)
1976-12-27 (49 years ago)
Launch vehicle
Unknown
Launch site
Tyuratam Missile And Space Complex (TTMTR)
Object type
Payload
Rocket body
Debris
Shape & HBR
Unknown shape, 0.2 m
Radar Cross Section
Medium (>0.1 m² and <1 m²)

Expand to show TLE details & history
Last TLE update: 12 hours ago

TLE from 12 hours ago
0 COSMOS 886 DEB
1  9651U 76126H   26130.03283909  .00001757  00000-0  62100-3 0  9991
2  9651  65.7935 347.0623 0777393 114.3829 254.0335 13.34451925346931
Epoch: 2026-05-10T00:47Z
TLE epoch observation values (Epoch: 2026-05-10T00:47:17.297Z)
Latitude
0.00004°
Longitude
107.39851°
Altitude
1,333.063 km
Speed
7.095 km/s
True Right ascension
23h 08m 14s
True Declination
0° 00' 00"
Sunlit
Object was in daylight at epoch
Visualization orbit readout
Latitude
Unknown
Longitude
Unknown
Altitude
Unknown
Speed
Unknown
Apparent Right ascension
Unknown
Apparent Declination
Unknown
Sunlit
N/A
Visualization observer readout
Local Sidereal Time
20:32:37
Azimuth
Unknown
Elevation
Unknown
Doppler factor
Unknown
Orbital elements
Apogee altitude
1,712.121 km
Perigee altitude
544.991 km
Semi-major axis
7,506.693 km
Eccentricity
0.07774
Inclination
65.7935°
RAAN
347.0623°
Arg. of periapsis
114.3829°
True anomaly
245.72123°
Mean anomaly
254.0335°
Eccentric anomaly
249.85193°
Mean motion
3.33711 °/min
Orbital period
107.88 mins
BSTAR
0.000621
Loading maneuver chart data...
Computing Atmospheric mass density...
Loading historical data...
Loading historical data...
Loading historical data...
Loading historical data...
Loading historical data...
Loading historical data...
Loading historical data...

Documentation

Showing up to 5 results
|